sat.trackr.live / text

‹ back to catalog

STARLINK-5960

NORAD 56920 · 2023-083AW

PAYLOAD ACTIVE UNKNOWN

§ Identity

Operator
Country
US
Launch date
2023-06-12
Launch site
AFETR
Launch vehicle
Mass (kg)
RCS (m²)

Purposes: comms

External: N2YO · Heavens-Above · Gunter

§ Orbital elements

Epoch: 2026-09-20T16:47:41.622720Z

Period
94.27 min
Inclination
43.0031°
Eccentricity
0.0001139
Mean motion
15.27579214 rev/d
Perigee alt
482.3 km
Apogee alt
483.8 km
Semi-major
6,861.2 km
B*
1.7320e-5
RAAN
49.2506°
Arg perigee
253.5749°
Mean anomaly
106.4978°
Rev number
18,162

§ Raw data

STARLINK-59601 56920U 23083AW  26263.69978730  .00000215  00000+0  17320-4 0  99902 56920  43.0031  49.2506 0001139 253.5749 106.4978 15.27579214181626

JSON: /api/v1/satellites/56920 · /tle

For live sub-satellite position, see the globe view (requires WebGL).

§ Visibility from observer

Set your observer location to see the next 7 days of passes ≥ 10°. The values pass through the URL so the page stays shareable.

No JS? Fill the form by hand. The geolocation button needs JavaScript.